Location: Makakahi
(40.6833°S, 175.6000°E)
Time: 00:34:31
(UTC+00:00)

FENGYUN 1C DEB - Pass Details

Date: 08 December 2024
Orbit: 812 x 877 km, 98.8° (Epoch: 19 January)

Event Time Altitude Azimuth Distance (km) Brightness Sun altitude
Rises 10:01:33 0° 177° (S) 3,379 ? -19.9°
Reaches altitude 10° 10:04:08 10° 187° (S) 2,445 ? -20.1°
Maximum altitude 10:08:47 30° 246° (WSW) 1,455 ? -20.6°
Drops below altitude 10° 10:13:26 10° 306° (NW) 2,449 ? -21.0°
Sets 10:16:02 0° 316° (NW) 3,386 ? -21.3°
